Flag for Botswana Weather past 2 weeks in Francistown, Botswana

Now
48 °F

Sunny.


Feels Like: 44 °F
Forecast: 47 / 72 °F
Wind: 9 mph from Southeast

Location: Francistown Airport

Current Time: Jul 7, 2015 at 7:42:36 AM

Latest Report: Jul 7, 2015 at 7:00 AM


Visibility: 10 mi

Pressure: 30.42 "Hg (26.99 "Hg at 989m altitude)

Humidity: 71%

Dew point: 39 °F

Location of FrancistownLocation

Historic Weather in Francistown — Graph

°F

Francistown temperature yesterday

Maximum temperature yesterday: 77 °F (at 1:00 PM)
Minimum temperature yesterday: 36 °F (at 5:00 AM)
Average temperature yesterday: 57 °F

Past Weeks' High & Low Weather Summary

 TemperatureHumidityPressure
High82 °F (Jun 29, 3:00 PM)100% (Jun 28, 5:00 AM)30.39 "Hg (Jun 28, 5:00 AM)
Low34 °F (Jun 22, 6:00 AM)18% (Jun 24, 3:00 PM)30.15 "Hg (Jun 24, 3:00 PM)
Average60 °F50%30.28 "Hg
* Reported Jun 22 6:00 AM — Jul 7 6:00 AM, Francistown, Weather by CustomWeather, © 2015

Note: Actual official high and low records may vary slightly from our data, if they occured in-between our weather recording intervals... More about our weather records

Advertising

Francistown weather history for previous 24 hours

 ConditionsComfort  
Time TempWeatherWind HumidityBarometerVisibility
6:00 AM
Tue, Jul 7
46 °FSunny.7 mph66%30.39 "Hg10 mi
5:00 AM48 °FClear.6 mph58%30.39 "Hg10 mi
4:00 AM52 °FClear.6 mph50%30.36 "Hg10 mi
2:00 AM59 °FClear.12 mph39%30.36 "Hg10 mi
1:00 AM61 °FClear.14 mph36%30.36 "Hg10 mi
12:00 AM59 °FClear.10 mph36%30.36 "Hg10 mi
11:00 PM
Mon, Jul 6
57 °FClear.9 mph36%30.36 "Hg10 mi
10:00 PM54 °FClear.3 mph41%30.33 "Hg10 mi
9:00 PM57 °FClear.6 mph39%30.33 "Hg10 mi
8:00 PM59 °FClear.6 mph36%30.30 "Hg10 mi
7:00 PM61 °FClear.7 mph36%30.27 "Hg10 mi
6:00 PM68 °FClear.7 mph28%30.27 "Hg10 mi
5:00 PM75 °FPassing clouds.8 mph22%30.27 "HgN/A
4:00 PM77 °FSunny.9 mph21%30.24 "Hg10 mi
3:00 PM77 °FSunny.12 mph22%30.24 "Hg10 mi
2:00 PM77 °FSunny.6 mph22%30.27 "Hg10 mi
1:00 PM77 °FSunny.10 mph24%30.30 "Hg10 mi
12:00 PM75 °FSunny.6 mph25%30.30 "Hg10 mi
11:00 AM73 °FSunny.12 mph27%30.33 "Hg10 mi
10:00 AM70 °FSunny.10 mph33%30.33 "Hg10 mi
8:00 AM45 °FSunny.1 mph61%30.33 "Hg10 mi
7:00 AM36 °FSunny.No wind75%30.30 "Hg10 mi
Weather by CustomWeather, © 2015

See weather overviewHow to use our weather pages